Tracking 18840 objects as of 18-November-2017
HD Live streaming from Space Station
objects crossing your sky now

FENGYUN 1C DEB

Track FENGYUN 1C DEB now!
10-day predictions


NORAD ID: 31482
Int'l Code: 1999-025BVW
Perigee: 737.1 km
Apogee: 881.3 km
Inclination: 98.6 °
Period: 100.9 minutes
Semi major axis: 7180 km
RCS: 0.0141 m2 (small)
Launch date: May 10, 1999
Source: People's Republic of China (PRC)
Launch site: Taiyaun Space Center, China (TSC)

Note: This is SATELLITE DEBRIS
aabbcc
Your satellite tracking list
Your tracking list is empty




NASA's NSSDC Master Catalog

Two Line Element Set (TLE):
1 31482U 99025BVW 17321.37509554  .00000413  00000-0  17836-3 0  9991
2 31482  98.6252   3.5999 0100397 322.8186  93.3514 14.26924543551621
Source of the keplerian elements: AFSPC